Location: Arbon
(43.0005°N, 0.7472°E)
Time: 10:27:04
(UTC+00:00)

Vanguard 2 Rocket - Pass Details

Date: 04 December 2020
Orbit: 554 x 3325 km, 32.9° (Epoch: 21 January)

Event Time Altitude Azimuth Distance (km) Brightness Sun altitude
Rises 07:53:33 0° 252° (WSW) 6,847 11.0 5.5°
Reaches altitude 10° 07:57:53 10° 250° (WSW) 6,032 10.8 6.1°
Maximum altitude 08:17:24 61° 176° (S) 3,545 10.4 8.8°
Drops below altitude 10° 08:34:20 10° 102° (ESE) 5,328 11.9 11.0°
Sets 08:37:53 0° 99° (E) 6,045 12.0 11.5°
